Updated30/07/2021 07:35 
 

GeoURL
free counters
Scottish Weather Network UK Weather Network Cumulus Top Weather Sites

Peebles Weather

Raw Data, Raw Data Expanded

Ignore low humidity and Dew Point values. Something wrong with the sensor.
Daytime temperatures are in direct sunlight so may be higher than official air temperature values.
As with any other website, we log your IP address and browser type in the server logs for diagnostic reasons. Cookies are used to record visit time and gauges preferences. No personal information is stored or processed.

All times are in local time (GMT, or BST in summer) unless specified.

2021/07/30 06:20 EGPH 300620Z 27002KT 9999 OVC027 14/13 Q1004
13.7°C 0.0 mm 0.0 mm 0.0 mm 0.0 mph 0.0 mph 999.0 hPa 36% X-Ray Solar Flare Level
Planetary K-Index
Planetary K-Index History
Station Warn Rain Snow Flood Wind Ltng Heat Cold Glob Moon Temp Rain 1h Rain Fri Rain 24h Wind 10m Gust Pressure Hum Proton Levels

m Waning Gibbous Cool F0-E F: A: Kp:0 SSN:0

Aircraft Info

Common Squawks

Info taken from user Softhead's post on Transmission1

RTL1090 Table Info

Screengrab from PlanePlotter Output

XHTML 1.1 | CSS